Year,Month,Day,Hour,Minute,Value (Times are PST for temperature in C)
2008,07,13,00,00,14.40
2008,07,13,00,01,14.50
2008,07,13,00,02,14.50
2008,07,13,00,03,14.50
2008,07,13,00,04,14.50
2008,07,13,00,05,14.50
2008,07,13,00,06,14.60
2008,07,13,00,07,14.60
2008,07,13,00,08,14.60
2008,07,13,00,09,14.60
2008,07,13,00,10,14.70
2008,07,13,00,11,14.80
2008,07,13,00,12,14.90
2008,07,13,00,13,14.90
2008,07,13,00,14,15.00
2008,07,13,00,15,15.00
2008,07,13,00,16,15.00
2008,07,13,00,17,15.00
2008,07,13,00,18,15.00
2008,07,13,00,19,15.00
2008,07,13,00,20,15.00
2008,07,13,00,21,15.10
2008,07,13,00,22,15.20
2008,07,13,00,23,15.30
2008,07,13,00,24,15.40
2008,07,13,00,25,15.50
2008,07,13,00,26,15.50
2008,07,13,00,27,15.60
2008,07,13,00,28,15.60
2008,07,13,00,29,15.50
2008,07,13,00,30,15.50
2008,07,13,00,31,15.50
2008,07,13,00,32,15.40
2008,07,13,00,33,15.40
2008,07,13,00,34,15.40
2008,07,13,00,35,15.30
2008,07,13,00,36,15.30
2008,07,13,00,37,15.30
2008,07,13,00,38,15.30
2008,07,13,00,39,15.30
2008,07,13,00,40,15.30
2008,07,13,00,41,15.40
2008,07,13,00,42,15.40
2008,07,13,00,43,15.50
2008,07,13,00,44,15.50
2008,07,13,00,45,15.60
2008,07,13,00,46,15.70
2008,07,13,00,47,15.70
2008,07,13,00,48,15.70
2008,07,13,00,49,15.80
2008,07,13,00,50,15.80
2008,07,13,00,51,15.80
2008,07,13,00,52,15.70
2008,07,13,00,53,15.70
2008,07,13,00,54,15.60
2008,07,13,00,55,15.50
2008,07,13,00,56,15.40
2008,07,13,00,57,15.30
2008,07,13,00,58,15.30
2008,07,13,00,59,15.20
2008,07,13,01,00,15.20
2008,07,13,01,01,15.20
2008,07,13,01,02,15.20
2008,07,13,01,03,15.20
2008,07,13,01,04,15.30
2008,07,13,01,05,15.40
2008,07,13,01,06,15.50
2008,07,13,01,07,15.60
2008,07,13,01,08,15.70
2008,07,13,01,09,15.70
2008,07,13,01,10,15.70
2008,07,13,01,11,15.70
2008,07,13,01,12,15.60
2008,07,13,01,13,15.50
2008,07,13,01,14,15.40
2008,07,13,01,15,15.40
2008,07,13,01,16,15.30
2008,07,13,01,17,15.30
2008,07,13,01,18,15.40
2008,07,13,01,19,15.50
2008,07,13,01,20,15.70
2008,07,13,01,21,15.90
2008,07,13,01,22,16.10
2008,07,13,01,23,16.30
2008,07,13,01,24,16.60
2008,07,13,01,25,16.80
2008,07,13,01,26,16.90
2008,07,13,01,27,17.00
2008,07,13,01,28,17.20
2008,07,13,01,29,17.30
2008,07,13,01,30,17.30
2008,07,13,01,31,17.40
2008,07,13,01,32,17.40
2008,07,13,01,33,17.50
2008,07,13,01,34,17.50
2008,07,13,01,35,17.60
2008,07,13,01,36,17.60
2008,07,13,01,37,17.50
2008,07,13,01,38,17.30
2008,07,13,01,39,17.30
2008,07,13,01,40,17.30
2008,07,13,01,41,17.30
2008,07,13,01,42,17.30
2008,07,13,01,43,17.40
2008,07,13,01,44,17.40
2008,07,13,01,45,17.40
2008,07,13,01,46,17.40
2008,07,13,01,47,17.50
2008,07,13,01,48,17.50
2008,07,13,01,49,17.50
2008,07,13,01,50,17.60
2008,07,13,01,51,17.60
2008,07,13,01,52,17.60
2008,07,13,01,53,17.60
2008,07,13,01,54,17.70
2008,07,13,01,55,17.60
2008,07,13,01,56,17.60
2008,07,13,01,57,17.50
2008,07,13,01,58,17.20
2008,07,13,01,59,17.10
2008,07,13,02,00,17.00
2008,07,13,02,01,16.80
2008,07,13,02,02,16.70
2008,07,13,02,03,16.60
2008,07,13,02,04,16.50
2008,07,13,02,05,16.50
2008,07,13,02,06,16.40
2008,07,13,02,07,16.30
2008,07,13,02,08,16.20
2008,07,13,02,09,16.00
2008,07,13,02,10,15.80
2008,07,13,02,11,15.60
2008,07,13,02,12,15.40
2008,07,13,02,13,15.30
2008,07,13,02,14,15.10
2008,07,13,02,15,15.00
2008,07,13,02,16,15.00
2008,07,13,02,17,14.90
2008,07,13,02,18,14.80
2008,07,13,02,19,14.90
2008,07,13,02,20,14.90
2008,07,13,02,21,14.70
2008,07,13,02,22,14.60
2008,07,13,02,23,14.50
2008,07,13,02,24,14.50
2008,07,13,02,25,14.60
2008,07,13,02,26,14.60
2008,07,13,02,27,14.50
2008,07,13,02,28,14.40
2008,07,13,02,29,14.40
2008,07,13,02,30,14.30
2008,07,13,02,31,14.20
2008,07,13,02,32,14.20
2008,07,13,02,33,14.20
2008,07,13,02,34,14.20
2008,07,13,02,35,14.10
2008,07,13,02,36,14.20
2008,07,13,02,37,14.20
2008,07,13,02,38,14.20
2008,07,13,02,39,14.10
2008,07,13,02,40,14.10
2008,07,13,02,41,14.00
2008,07,13,02,42,13.90
2008,07,13,02,43,13.80
2008,07,13,02,44,13.70
2008,07,13,02,45,13.70
2008,07,13,02,46,13.70
2008,07,13,02,47,13.60
2008,07,13,02,48,13.50
2008,07,13,02,49,13.50
2008,07,13,02,50,13.40
2008,07,13,02,51,13.40
2008,07,13,02,52,13.40
2008,07,13,02,53,13.30
2008,07,13,02,54,13.30
2008,07,13,02,55,13.20
2008,07,13,02,56,13.20
2008,07,13,02,57,13.10
2008,07,13,02,58,13.10
2008,07,13,02,59,13.10
2008,07,13,03,00,13.10
2008,07,13,03,01,13.10
2008,07,13,03,02,13.10
2008,07,13,03,03,13.10
2008,07,13,03,04,13.10
2008,07,13,03,05,13.10
2008,07,13,03,06,13.10
2008,07,13,03,07,13.10
2008,07,13,03,08,13.10
2008,07,13,03,09,13.10
2008,07,13,03,10,13.10
2008,07,13,03,11,13.10
2008,07,13,03,12,13.10
2008,07,13,03,13,13.10
2008,07,13,03,14,13.10
2008,07,13,03,15,13.30
2008,07,13,03,16,13.30
2008,07,13,03,17,13.40
2008,07,13,03,18,13.40
2008,07,13,03,19,13.40
2008,07,13,03,20,13.40
2008,07,13,03,21,13.40
2008,07,13,03,22,13.40
2008,07,13,03,23,13.40
2008,07,13,03,24,13.40
2008,07,13,03,25,13.30
2008,07,13,03,26,13.30
2008,07,13,03,27,13.30
2008,07,13,03,28,13.30
2008,07,13,03,29,13.30
2008,07,13,03,30,13.40
2008,07,13,03,31,13.50
2008,07,13,03,32,13.60
2008,07,13,03,33,13.70
2008,07,13,03,34,13.70
2008,07,13,03,35,13.80
2008,07,13,03,36,13.80
2008,07,13,03,37,13.90
2008,07,13,03,38,14.00
2008,07,13,03,39,14.00
2008,07,13,03,40,14.20
2008,07,13,03,41,14.30
2008,07,13,03,42,14.40
2008,07,13,03,43,14.50
2008,07,13,03,44,14.70
2008,07,13,03,45,14.80
2008,07,13,03,46,14.80
2008,07,13,03,47,15.00
2008,07,13,03,48,15.00
2008,07,13,03,49,15.00
2008,07,13,03,50,15.00
2008,07,13,03,51,15.00
2008,07,13,03,52,15.00
2008,07,13,03,53,15.00
2008,07,13,03,54,15.00
2008,07,13,03,55,15.00
2008,07,13,03,56,15.00
2008,07,13,03,57,15.00
2008,07,13,03,58,14.80
2008,07,13,03,59,14.60
2008,07,13,04,00,14.50
2008,07,13,04,01,14.30
2008,07,13,04,02,14.10
2008,07,13,04,03,13.90
2008,07,13,04,04,13.70
2008,07,13,04,05,13.60
2008,07,13,04,06,13.50
2008,07,13,04,07,13.40
2008,07,13,04,08,13.20
2008,07,13,04,09,13.10
2008,07,13,04,10,13.00
2008,07,13,04,11,12.90
2008,07,13,04,12,12.80
2008,07,13,04,13,12.80
2008,07,13,04,14,12.80
2008,07,13,04,15,12.80
2008,07,13,04,16,12.80
2008,07,13,04,17,12.80
2008,07,13,04,18,12.80
2008,07,13,04,19,12.80
2008,07,13,04,20,12.90
2008,07,13,04,21,12.90
2008,07,13,04,22,12.90
2008,07,13,04,23,12.90
2008,07,13,04,24,12.80
2008,07,13,04,25,12.80
2008,07,13,04,26,12.80
2008,07,13,04,27,12.80
2008,07,13,04,28,12.90
2008,07,13,04,29,12.80
2008,07,13,04,30,12.80
2008,07,13,04,31,12.70
2008,07,13,04,32,12.70
2008,07,13,04,33,12.60
2008,07,13,04,34,12.60
2008,07,13,04,35,12.60
2008,07,13,04,36,12.60
2008,07,13,04,37,12.60
2008,07,13,04,38,12.60
2008,07,13,04,39,12.60
2008,07,13,04,40,12.60
2008,07,13,04,41,12.60
2008,07,13,04,42,12.60
2008,07,13,04,43,12.60
2008,07,13,04,44,12.50
2008,07,13,04,45,12.60
2008,07,13,04,46,12.60
2008,07,13,04,47,12.50
2008,07,13,04,48,12.50
2008,07,13,04,49,12.40
2008,07,13,04,50,12.40
2008,07,13,04,51,12.40
2008,07,13,04,52,12.40
2008,07,13,04,53,12.40
2008,07,13,04,54,12.40
2008,07,13,04,55,12.40
2008,07,13,04,56,12.40
2008,07,13,04,57,12.40
2008,07,13,04,58,12.40
2008,07,13,04,59,12.30
2008,07,13,05,00,12.30
2008,07,13,05,01,12.30
2008,07,13,05,02,12.20
2008,07,13,05,03,12.20
2008,07,13,05,04,12.20
2008,07,13,05,05,12.20
2008,07,13,05,06,12.20
2008,07,13,05,07,12.20
2008,07,13,05,08,12.20
2008,07,13,05,09,12.30
2008,07,13,05,10,12.30
2008,07,13,05,11,12.40
2008,07,13,05,12,12.50
2008,07,13,05,13,12.60
2008,07,13,05,14,12.70
2008,07,13,05,15,12.70
2008,07,13,05,16,12.80
2008,07,13,05,17,12.80
2008,07,13,05,18,12.80
2008,07,13,05,19,12.90
2008,07,13,05,20,12.90
2008,07,13,05,21,13.00
2008,07,13,05,22,13.10
2008,07,13,05,23,13.10
2008,07,13,05,24,13.10
2008,07,13,05,25,13.20
2008,07,13,05,26,13.20
2008,07,13,05,27,13.20
2008,07,13,05,28,13.20
2008,07,13,05,29,13.10
2008,07,13,05,30,13.10
2008,07,13,05,31,13.10
2008,07,13,05,32,13.00
2008,07,13,05,33,13.00
2008,07,13,05,34,13.00
2008,07,13,05,35,13.00
2008,07,13,05,36,13.00
2008,07,13,05,37,13.00
2008,07,13,05,38,13.10
2008,07,13,05,39,13.10
2008,07,13,05,40,13.10
2008,07,13,05,41,13.10
2008,07,13,05,42,13.10
2008,07,13,05,43,13.00
2008,07,13,05,44,13.00
2008,07,13,05,45,13.10
2008,07,13,05,46,13.10
2008,07,13,05,47,13.10
2008,07,13,05,48,13.20
2008,07,13,05,49,13.20
2008,07,13,05,50,13.30
2008,07,13,05,51,13.40
2008,07,13,05,52,13.40
2008,07,13,05,53,13.50
2008,07,13,05,54,13.60
2008,07,13,05,55,13.60
2008,07,13,05,56,13.60
2008,07,13,05,57,13.60
2008,07,13,05,58,13.50
2008,07,13,05,59,13.60
2008,07,13,06,00,13.60
2008,07,13,06,01,13.70
2008,07,13,06,02,13.70
2008,07,13,06,03,13.70
2008,07,13,06,04,13.80
2008,07,13,06,05,13.80
2008,07,13,06,06,13.90
2008,07,13,06,07,14.00
2008,07,13,06,08,14.00
2008,07,13,06,09,14.10
2008,07,13,06,10,14.20
2008,07,13,06,11,14.30
2008,07,13,06,12,14.30
2008,07,13,06,13,14.40
2008,07,13,06,14,14.40
2008,07,13,06,15,14.50
2008,07,13,06,16,14.60
2008,07,13,06,17,14.60
2008,07,13,06,18,14.70
2008,07,13,06,19,14.80
2008,07,13,06,20,14.80
2008,07,13,06,21,14.90
2008,07,13,06,22,15.00
2008,07,13,06,23,15.00
2008,07,13,06,24,15.00
2008,07,13,06,25,15.00
2008,07,13,06,26,15.10
2008,07,13,06,27,15.20
2008,07,13,06,28,15.30
2008,07,13,06,29,15.30
2008,07,13,06,30,15.40
2008,07,13,06,31,15.40
2008,07,13,06,32,15.40
2008,07,13,06,33,15.50
2008,07,13,06,34,15.50
2008,07,13,06,35,15.60
2008,07,13,06,36,15.60
2008,07,13,06,37,15.70
2008,07,13,06,38,15.70
2008,07,13,06,39,15.70
2008,07,13,06,40,15.70
2008,07,13,06,41,15.70
2008,07,13,06,42,15.70
2008,07,13,06,43,15.70
2008,07,13,06,44,15.80
2008,07,13,06,45,15.80
2008,07,13,06,46,15.80
2008,07,13,06,47,15.80
2008,07,13,06,48,15.90
2008,07,13,06,49,15.90
2008,07,13,06,50,16.00
2008,07,13,06,51,16.10
2008,07,13,06,52,16.10
2008,07,13,06,53,16.20
2008,07,13,06,54,16.20
2008,07,13,06,55,16.30
2008,07,13,06,56,16.30
2008,07,13,06,57,16.30
2008,07,13,06,58,16.40
2008,07,13,06,59,16.40
2008,07,13,07,00,16.40
2008,07,13,07,01,16.50
2008,07,13,07,02,16.60
2008,07,13,07,03,16.60
2008,07,13,07,04,16.70
2008,07,13,07,05,16.70
2008,07,13,07,06,16.80
2008,07,13,07,07,16.80
2008,07,13,07,08,16.90
2008,07,13,07,09,16.90
2008,07,13,07,10,16.90
2008,07,13,07,11,17.00
2008,07,13,07,12,17.10
2008,07,13,07,13,17.10
2008,07,13,07,14,17.20
2008,07,13,07,15,17.20
2008,07,13,07,16,17.20
2008,07,13,07,17,17.20
2008,07,13,07,18,17.30
2008,07,13,07,19,17.40
2008,07,13,07,20,17.40
2008,07,13,07,21,17.40
2008,07,13,07,22,17.40
2008,07,13,07,23,17.40
2008,07,13,07,24,17.40
2008,07,13,07,25,17.40
2008,07,13,07,26,17.40
2008,07,13,07,27,17.40
2008,07,13,07,28,17.40
2008,07,13,07,29,17.40
2008,07,13,07,30,17.40
2008,07,13,07,31,17.40
2008,07,13,07,32,17.40
2008,07,13,07,33,17.40
2008,07,13,07,34,17.50
2008,07,13,07,35,17.50
2008,07,13,07,36,17.50
2008,07,13,07,37,17.60
2008,07,13,07,38,17.60
2008,07,13,07,39,17.60
2008,07,13,07,40,17.60
2008,07,13,07,41,17.70
2008,07,13,07,42,17.70
2008,07,13,07,43,17.70
2008,07,13,07,44,17.70
2008,07,13,07,45,17.70
2008,07,13,07,46,17.70
2008,07,13,07,47,17.70
2008,07,13,07,48,17.70
2008,07,13,07,49,17.70
2008,07,13,07,50,17.70
2008,07,13,07,51,17.70
2008,07,13,07,52,17.80
2008,07,13,07,53,17.70
2008,07,13,07,54,17.70
2008,07,13,07,55,17.70
2008,07,13,07,56,17.70
2008,07,13,07,57,17.70
2008,07,13,07,58,17.70
2008,07,13,07,59,17.70
2008,07,13,08,00,17.70
2008,07,13,08,01,17.70
2008,07,13,08,02,17.70
2008,07,13,08,03,17.70
2008,07,13,08,04,17.70
2008,07,13,08,05,17.70
2008,07,13,08,06,17.70
2008,07,13,08,07,17.70
2008,07,13,08,08,17.70
2008,07,13,08,09,17.80
2008,07,13,08,10,17.80
2008,07,13,08,11,17.80
2008,07,13,08,12,17.80
2008,07,13,08,13,17.80
2008,07,13,08,14,17.80
2008,07,13,08,15,17.80
2008,07,13,08,16,17.80
2008,07,13,08,17,17.80
2008,07,13,08,18,17.80
2008,07,13,08,19,17.70
2008,07,13,08,20,17.70
2008,07,13,08,21,17.60
2008,07,13,08,22,17.70
2008,07,13,08,23,17.70
2008,07,13,08,24,17.80
2008,07,13,08,25,17.90
2008,07,13,08,26,17.80
2008,07,13,08,27,17.80
2008,07,13,08,28,17.80
2008,07,13,08,29,17.80
2008,07,13,08,30,17.80
2008,07,13,08,31,17.80
2008,07,13,08,32,17.80
2008,07,13,08,33,17.80
2008,07,13,08,34,17.90
2008,07,13,08,35,17.90
2008,07,13,08,36,17.90
2008,07,13,08,37,17.80
2008,07,13,08,38,17.80
2008,07,13,08,39,17.80
2008,07,13,08,40,17.80
2008,07,13,08,41,17.90
2008,07,13,08,42,17.90
2008,07,13,08,43,18.00
2008,07,13,08,44,18.00
2008,07,13,08,45,17.90
2008,07,13,08,46,18.00
2008,07,13,08,47,18.00
2008,07,13,08,48,18.00
2008,07,13,08,49,18.00
2008,07,13,08,50,18.00
2008,07,13,08,51,18.00
2008,07,13,08,52,18.00
2008,07,13,08,53,17.90
2008,07,13,08,54,17.90
2008,07,13,08,55,18.00
2008,07,13,08,56,18.00
2008,07,13,08,57,17.90
2008,07,13,08,58,17.80
2008,07,13,08,59,17.80
2008,07,13,09,00,17.70
2008,07,13,09,01,17.60
2008,07,13,09,02,17.60
2008,07,13,09,03,17.60
2008,07,13,09,04,17.60
2008,07,13,09,05,17.50
2008,07,13,09,06,17.50
2008,07,13,09,07,17.50
2008,07,13,09,08,17.60
2008,07,13,09,09,17.60
2008,07,13,09,10,17.60
2008,07,13,09,11,17.70
2008,07,13,09,12,17.70
2008,07,13,09,13,17.70
2008,07,13,09,14,17.80
2008,07,13,09,15,17.80
2008,07,13,09,16,17.80
2008,07,13,09,17,17.80
2008,07,13,09,18,17.80
2008,07,13,09,19,17.80
2008,07,13,09,20,17.80
2008,07,13,09,21,17.70
2008,07,13,09,22,17.70
2008,07,13,09,23,17.70
2008,07,13,09,24,17.80
2008,07,13,09,25,17.80
2008,07,13,09,26,17.80
2008,07,13,09,27,17.80
2008,07,13,09,28,17.80
2008,07,13,09,29,17.80
2008,07,13,09,30,17.80
2008,07,13,09,31,17.70
2008,07,13,09,32,17.60
2008,07,13,09,33,17.60
2008,07,13,09,34,17.60
2008,07,13,09,35,17.60
2008,07,13,09,36,17.70
2008,07,13,09,37,17.70
2008,07,13,09,38,17.80
2008,07,13,09,39,17.90
2008,07,13,09,40,17.90
2008,07,13,09,41,17.90
2008,07,13,09,42,18.00
2008,07,13,09,43,18.00
2008,07,13,09,44,17.90
2008,07,13,09,45,17.90
2008,07,13,09,46,17.80
2008,07,13,09,47,17.80
2008,07,13,09,48,17.70
2008,07,13,09,49,17.60
2008,07,13,09,50,17.60
2008,07,13,09,51,17.50
2008,07,13,09,52,17.50
2008,07,13,09,53,17.50
2008,07,13,09,54,17.50
2008,07,13,09,55,17.50
2008,07,13,09,56,17.40
2008,07,13,09,57,17.40
2008,07,13,09,58,17.40
2008,07,13,09,59,17.40
2008,07,13,10,00,17.40
2008,07,13,10,01,17.40
2008,07,13,10,02,17.40
2008,07,13,10,03,17.40
2008,07,13,10,04,17.40
2008,07,13,10,05,17.40
2008,07,13,10,06,17.40
2008,07,13,10,07,17.40
2008,07,13,10,08,17.30
2008,07,13,10,09,17.30
2008,07,13,10,10,17.30
2008,07,13,10,11,17.30
2008,07,13,10,12,17.30
2008,07,13,10,13,17.30
2008,07,13,10,14,17.30
2008,07,13,10,15,17.30
2008,07,13,10,16,17.40
2008,07,13,10,17,17.50
2008,07,13,10,18,17.60
2008,07,13,10,19,17.70
2008,07,13,10,20,17.70
2008,07,13,10,21,17.80
2008,07,13,10,22,17.80
2008,07,13,10,23,17.70
2008,07,13,10,24,17.70
2008,07,13,10,25,17.70
2008,07,13,10,26,17.70
2008,07,13,10,27,17.70
2008,07,13,10,28,17.80
2008,07,13,10,29,17.80
2008,07,13,10,30,17.80
2008,07,13,10,31,17.70
2008,07,13,10,32,17.70
2008,07,13,10,33,17.70
2008,07,13,10,34,17.70
2008,07,13,10,35,17.70
2008,07,13,10,36,17.70
2008,07,13,10,37,17.70
2008,07,13,10,38,17.70
2008,07,13,10,39,17.60
2008,07,13,10,40,17.60
2008,07,13,10,41,17.60
2008,07,13,10,42,17.60
2008,07,13,10,43,17.60
2008,07,13,10,44,17.60
2008,07,13,10,45,17.60
2008,07,13,10,46,17.50
2008,07,13,10,47,17.50
2008,07,13,10,48,17.50
2008,07,13,10,49,17.50
2008,07,13,10,50,17.60
2008,07,13,10,51,17.60
2008,07,13,10,52,17.60
2008,07,13,10,53,17.70
2008,07,13,10,54,17.80
2008,07,13,10,55,17.90
2008,07,13,10,56,17.90
2008,07,13,10,57,17.90
2008,07,13,10,58,17.90
2008,07,13,10,59,17.80
2008,07,13,11,00,17.80
2008,07,13,11,01,17.90
2008,07,13,11,02,17.90
2008,07,13,11,03,17.90
2008,07,13,11,04,17.90
2008,07,13,11,05,17.80
2008,07,13,11,06,17.80
2008,07,13,11,07,17.80
2008,07,13,11,08,17.80
2008,07,13,11,09,17.90
2008,07,13,11,10,18.00
2008,07,13,11,11,18.00
2008,07,13,11,12,18.00
2008,07,13,11,13,17.90
2008,07,13,11,14,17.90
2008,07,13,11,15,17.80
2008,07,13,11,16,17.80
2008,07,13,11,17,17.80
2008,07,13,11,18,17.80
2008,07,13,11,19,17.80
2008,07,13,11,20,17.80
2008,07,13,11,21,17.80
2008,07,13,11,22,17.80
2008,07,13,11,23,17.80
2008,07,13,11,24,17.70
2008,07,13,11,25,17.70
2008,07,13,11,26,17.70
2008,07,13,11,27,17.80
2008,07,13,11,28,17.80
2008,07,13,11,29,17.80
2008,07,13,11,30,17.90
2008,07,13,11,31,17.90
2008,07,13,11,32,17.90
2008,07,13,11,33,18.00
2008,07,13,11,34,18.10
2008,07,13,11,35,18.20
2008,07,13,11,36,18.20
2008,07,13,11,37,18.20
2008,07,13,11,38,18.20
2008,07,13,11,39,18.20
2008,07,13,11,40,18.30
2008,07,13,11,41,18.20
2008,07,13,11,42,18.30
2008,07,13,11,43,18.40
2008,07,13,11,44,18.40
2008,07,13,11,45,18.50
2008,07,13,11,46,18.60
2008,07,13,11,47,18.60
2008,07,13,11,48,18.60
2008,07,13,11,49,18.50
2008,07,13,11,50,18.50
2008,07,13,11,51,18.50
2008,07,13,11,52,18.40
2008,07,13,11,53,18.40
2008,07,13,11,54,18.50
2008,07,13,11,55,18.60
2008,07,13,11,56,18.60
2008,07,13,11,57,18.70
2008,07,13,11,58,18.70
2008,07,13,11,59,18.70
2008,07,13,12,00,18.60
2008,07,13,12,01,18.60
2008,07,13,12,02,18.60
2008,07,13,12,03,18.60
2008,07,13,12,04,18.60
2008,07,13,12,05,18.70
2008,07,13,12,06,18.70
2008,07,13,12,07,18.80
2008,07,13,12,08,18.80
2008,07,13,12,09,18.80
2008,07,13,12,10,18.90
2008,07,13,12,11,18.90
2008,07,13,12,12,18.90
2008,07,13,12,13,18.90
2008,07,13,12,14,18.80
2008,07,13,12,15,18.80
2008,07,13,12,16,18.80
2008,07,13,12,17,18.80
2008,07,13,12,18,18.80
2008,07,13,12,19,18.80
2008,07,13,12,20,18.90
2008,07,13,12,21,18.90
2008,07,13,12,22,19.00
2008,07,13,12,23,19.00
2008,07,13,12,24,19.10
2008,07,13,12,25,19.20
2008,07,13,12,26,19.20
2008,07,13,12,27,19.20
2008,07,13,12,28,19.20
2008,07,13,12,29,19.20
2008,07,13,12,30,19.20
2008,07,13,12,31,19.20
2008,07,13,12,32,19.20
2008,07,13,12,33,19.20
2008,07,13,12,34,19.20
2008,07,13,12,35,19.20
2008,07,13,12,36,19.20
2008,07,13,12,37,19.10
2008,07,13,12,38,19.00
2008,07,13,12,39,18.90
2008,07,13,12,40,18.90
2008,07,13,12,41,18.90
2008,07,13,12,42,18.80
2008,07,13,12,43,18.80
2008,07,13,12,44,18.80
2008,07,13,12,45,18.80
2008,07,13,12,46,18.90
2008,07,13,12,47,18.90
2008,07,13,12,48,18.90
2008,07,13,12,49,19.00
2008,07,13,12,50,19.00
2008,07,13,12,51,19.00
2008,07,13,12,52,19.10
2008,07,13,12,53,19.20
2008,07,13,12,54,19.30
2008,07,13,12,55,19.30
2008,07,13,12,56,19.40
2008,07,13,12,57,19.50
2008,07,13,12,58,19.50
2008,07,13,12,59,19.60
2008,07,13,13,00,19.60
2008,07,13,13,01,19.60
2008,07,13,13,02,19.70
2008,07,13,13,03,19.80
2008,07,13,13,04,19.80
2008,07,13,13,05,19.90
2008,07,13,13,06,19.80
2008,07,13,13,07,19.80
2008,07,13,13,08,19.80
2008,07,13,13,09,19.70
2008,07,13,13,10,19.70
2008,07,13,13,11,19.80
2008,07,13,13,12,19.80
2008,07,13,13,13,19.80
2008,07,13,13,14,19.90
2008,07,13,13,15,19.90
2008,07,13,13,16,20.00
2008,07,13,13,17,20.00
2008,07,13,13,18,19.90
2008,07,13,13,19,19.90
2008,07,13,13,20,19.90
2008,07,13,13,21,20.00
2008,07,13,13,22,20.00
2008,07,13,13,23,20.00
2008,07,13,13,24,20.10
2008,07,13,13,25,20.10
2008,07,13,13,26,20.10
2008,07,13,13,27,20.10
2008,07,13,13,28,20.10
2008,07,13,13,29,20.20
2008,07,13,13,30,20.30
2008,07,13,13,31,20.30
2008,07,13,13,32,20.40
2008,07,13,13,33,20.40
2008,07,13,13,34,20.30
2008,07,13,13,35,20.30
2008,07,13,13,36,20.20
2008,07,13,13,37,20.20
2008,07,13,13,38,20.00
2008,07,13,13,39,19.90
2008,07,13,13,40,19.90
2008,07,13,13,41,19.90
2008,07,13,13,42,19.90
2008,07,13,13,43,19.90
2008,07,13,13,44,19.90
2008,07,13,13,45,20.00
2008,07,13,13,46,20.00
2008,07,13,13,47,19.90
2008,07,13,13,48,19.90
2008,07,13,13,49,19.90
2008,07,13,13,50,19.90
2008,07,13,13,51,19.90
2008,07,13,13,52,19.90
2008,07,13,13,53,19.90
2008,07,13,13,54,19.80
2008,07,13,13,55,19.90
2008,07,13,13,56,19.90
2008,07,13,13,57,20.00
2008,07,13,13,58,20.10
2008,07,13,13,59,20.20
2008,07,13,14,00,20.20
2008,07,13,14,01,20.30
2008,07,13,14,02,20.40
2008,07,13,14,03,20.50
2008,07,13,14,04,20.60
2008,07,13,14,05,20.60
2008,07,13,14,06,20.70
2008,07,13,14,07,20.70
2008,07,13,14,08,20.80
2008,07,13,14,09,20.80
2008,07,13,14,10,20.70
2008,07,13,14,11,20.60
2008,07,13,14,12,20.50
2008,07,13,14,13,20.40
2008,07,13,14,14,20.40
2008,07,13,14,15,20.40
2008,07,13,14,16,20.30
2008,07,13,14,17,20.40
2008,07,13,14,18,20.50
2008,07,13,14,19,20.60
2008,07,13,14,20,20.70
2008,07,13,14,21,20.90
2008,07,13,14,22,21.10
2008,07,13,14,23,21.20
2008,07,13,14,24,21.40
2008,07,13,14,25,21.60
2008,07,13,14,26,21.60
2008,07,13,14,27,21.50
2008,07,13,14,28,21.50
2008,07,13,14,29,21.50
2008,07,13,14,30,21.40
2008,07,13,14,31,21.50
2008,07,13,14,32,21.50
2008,07,13,14,33,21.50
2008,07,13,14,34,21.50
2008,07,13,14,35,21.40
2008,07,13,14,36,21.40
2008,07,13,14,37,21.30
2008,07,13,14,38,21.40
2008,07,13,14,39,21.30
2008,07,13,14,40,21.40
2008,07,13,14,41,21.40
2008,07,13,14,42,21.30
2008,07,13,14,43,21.30
2008,07,13,14,44,21.20
2008,07,13,14,45,21.20
2008,07,13,14,46,21.10
2008,07,13,14,47,21.10
2008,07,13,14,48,21.20
2008,07,13,14,49,21.20
2008,07,13,14,50,21.30
2008,07,13,14,51,21.30
2008,07,13,14,52,21.30
2008,07,13,14,53,21.20
2008,07,13,14,54,21.10
2008,07,13,14,55,21.00
2008,07,13,14,56,21.00
2008,07,13,14,57,20.90
2008,07,13,14,58,20.90
2008,07,13,14,59,21.00
2008,07,13,15,00,21.00
2008,07,13,15,01,20.90
2008,07,13,15,02,20.90
2008,07,13,15,03,20.90
2008,07,13,15,04,20.90
2008,07,13,15,05,20.90
2008,07,13,15,06,21.00
2008,07,13,15,07,21.10
2008,07,13,15,08,21.20
2008,07,13,15,09,21.30
2008,07,13,15,10,21.30
2008,07,13,15,11,21.40
2008,07,13,15,12,21.40
2008,07,13,15,13,21.40
2008,07,13,15,14,21.40
2008,07,13,15,15,21.50
2008,07,13,15,16,21.50
2008,07,13,15,17,21.50
2008,07,13,15,18,21.60
2008,07,13,15,19,21.70
2008,07,13,15,20,21.70
2008,07,13,15,21,21.70
2008,07,13,15,22,21.80
2008,07,13,15,23,21.80
2008,07,13,15,24,21.90
2008,07,13,15,25,22.00
2008,07,13,15,26,22.10
2008,07,13,15,27,22.10
2008,07,13,15,28,22.10
2008,07,13,15,29,22.00
2008,07,13,15,30,21.90
2008,07,13,15,31,21.80
2008,07,13,15,32,21.80
2008,07,13,15,33,21.80
2008,07,13,15,34,21.80
2008,07,13,15,35,21.80
2008,07,13,15,36,21.80
2008,07,13,15,37,21.80
2008,07,13,15,38,21.80
2008,07,13,15,39,21.80
2008,07,13,15,40,21.80
2008,07,13,15,41,21.70
2008,07,13,15,42,21.70
2008,07,13,15,43,21.80
2008,07,13,15,44,21.80
2008,07,13,15,45,21.90
2008,07,13,15,46,22.00
2008,07,13,15,47,22.00
2008,07,13,15,48,22.00
2008,07,13,15,49,22.00
2008,07,13,15,50,21.90
2008,07,13,15,51,22.00
2008,07,13,15,52,22.00
2008,07,13,15,53,22.10
2008,07,13,15,54,22.10
2008,07,13,15,55,22.20
2008,07,13,15,56,22.20
2008,07,13,15,57,22.20
2008,07,13,15,58,22.20
2008,07,13,15,59,22.20
2008,07,13,16,00,22.20
2008,07,13,16,01,22.10
2008,07,13,16,02,22.10
2008,07,13,16,03,22.10
2008,07,13,16,04,22.20
2008,07,13,16,05,22.30
2008,07,13,16,06,22.30
2008,07,13,16,07,22.40
2008,07,13,16,08,22.50
2008,07,13,16,09,22.60
2008,07,13,16,10,22.60
2008,07,13,16,11,22.60
2008,07,13,16,12,22.60
2008,07,13,16,13,22.60
2008,07,13,16,14,22.50
2008,07,13,16,15,22.40
2008,07,13,16,16,22.30
2008,07,13,16,17,22.30
2008,07,13,16,18,22.30
2008,07,13,16,19,22.30
2008,07,13,16,20,22.40
2008,07,13,16,21,22.40
2008,07,13,16,22,22.50
2008,07,13,16,23,22.40
2008,07,13,16,24,22.40
2008,07,13,16,25,22.40
2008,07,13,16,26,22.40
2008,07,13,16,27,22.40
2008,07,13,16,28,22.40
2008,07,13,16,29,22.30
2008,07,13,16,30,22.30
2008,07,13,16,31,22.30
2008,07,13,16,32,22.30
2008,07,13,16,33,22.20
2008,07,13,16,34,22.20
2008,07,13,16,35,22.10
2008,07,13,16,36,22.10
2008,07,13,16,37,22.10
2008,07,13,16,38,22.10
2008,07,13,16,39,22.00
2008,07,13,16,40,21.90
2008,07,13,16,41,21.90
2008,07,13,16,42,21.90
2008,07,13,16,43,22.00
2008,07,13,16,44,22.00
2008,07,13,16,45,22.00
2008,07,13,16,46,22.00
2008,07,13,16,47,22.00
2008,07,13,16,48,22.10
2008,07,13,16,49,22.10
2008,07,13,16,50,22.10
2008,07,13,16,51,22.10
2008,07,13,16,52,22.20
2008,07,13,16,53,22.20
2008,07,13,16,54,22.30
2008,07,13,16,55,22.30
2008,07,13,16,56,22.40
2008,07,13,16,57,22.40
2008,07,13,16,58,22.40
2008,07,13,16,59,22.40
2008,07,13,17,00,22.40
2008,07,13,17,01,22.40
2008,07,13,17,02,22.50
2008,07,13,17,03,22.60
2008,07,13,17,04,22.60
2008,07,13,17,05,22.70
2008,07,13,17,06,22.60
2008,07,13,17,07,22.60
2008,07,13,17,08,22.60
2008,07,13,17,09,22.60
2008,07,13,17,10,22.60
2008,07,13,17,11,22.50
2008,07,13,17,12,22.50
2008,07,13,17,13,22.50
2008,07,13,17,14,22.50
2008,07,13,17,15,22.60
2008,07,13,17,16,22.50
2008,07,13,17,17,22.40
2008,07,13,17,18,22.40
2008,07,13,17,19,22.30